Temperature
19 18 18 17 17 17 16 16 16 16 15 15 15 14 14 13 13 13 12 12 12 12 11 11 11 11 11 11 10 10 10 10 10 10 11 11 11 11 11 11 12 12 12
19 19 18 18 17 17 17 17 17 16 16 15 15 15 14 14 13 13 13 12 12 12 12 11 11 11 11 11 10 10 10 10 10 10 10 11 11 11 11 11 11 11 12
20 19 19 18 18 18 18 18 17 17 17 16 16 16 15 15 14 14 13 13 13 12 12 12 11 11 11 11 10 10 10 10 10 10 10 10 10 10 10 11 11 11 11
20 20 19 19 19 19 18 18 18 17 17 17 16 16 16 15 15 14 14 14 13 13 12 12 12 11 11 11 10 10 10 10 10 10 10 10 10 10 10 10 10 11 11
20 20 20 20 19 19 19 19 18 18 18 17 17 17 16 16 16 15 15 14 14 13 13 13 12 12 11 11 11 10 10 10 10 10 10 10 10 10 10 10 10 10 10
21 20 20 20 19 19 19 19 18 18 18 17 17 17 17 16 16 15 15 15 14 14 14 13 13 12 12 11 11 11 10 10 10 10 10 10 10 10 10 10 9 9 10
21 20 20 20 19 19 19 19 18 18 18 18 17 17 17 17 16 16 15 15 15 14 14 13 13 13 12 11 11 11 10 10 10 10 9 10 10 10 10 9 9 9 9
20 20 19 19 19 19 19 18 18 18 18 17 17 17 17 17 16 15 15 14 14 14 14 14 13 13 12 12 11 11 11 10 10 10 10 10 10 10 9 9 9 9 9
19 19 18 18 18 18 18 18 18 17 17 17 17 16 16 16 16 15 15 14 14 14 14 14 13 13 13 11 11 11 11 11 10 10 10 9 9 9 9 9 9 8 8
17 17 17 17 17 17 17 17 16 16 16 16 16 16 15 15 15 15 15 14 14 14 14 14 13 13 13 12 11 11 11 11 11 10 10 9 9 9 9 9 9 8 8
15 15 16 16 16 16 15 15 15 15 15 15 15 15 15 15 15 14 14 14 13 13 13 13 13 13 12 12 11 11 11 11 10 10 10 10 9 9 9 9 9 8 8
14 14 14 14 14 14 14 14 13 13 13 13 13 13 14 14 14 14 13 13 13 12 12 13 13 13 12 12 11 11 11 10 10 10 9 10 9 9 9 9 8 8 8
13 13 12 12 12 12 12 12 12 12 12 12 12 12 12 12 13 13 13 12 12 12 12 12 12 12 12 11 11 11 10 10 10 9 9 9 9 9 9 8 8 8 8
11 11 11 11 11 11 11 11 11 11 10 10 11 11 11 11 11 12 12 12 12 11 11 11 11 11 11 11 11 11 10 10 10 9 9 9 9 9 8 8 8 8 8
10 10 10 10 10 10 10 10 9 9 9 9 9 9 9 10 10 10 10 10 11 11 11 10 11 11 11 11 11 10 10 10 9 9 9 9 9 8 8 8 8 8 8
10 10 9 9 9 9 9 9 9 9 9 9 9 9 9 9 9 9 10 10 10 10 10 10 10 10 11 11 10 10 10 10 9 9 9 9 8 8 8 8 8 8 8
9 9 9 9 9 8 8 8 8 8 9 9 9 8 8 8 8 9 9 9 9 9 9 10 10 10 10 10 10 10 10 10 9 9 9 8 8 8 8 8 8 8 8
9 9 8 8 8 8 8 7 7 7 7 7 8 8 8 7 8 8 8 8 9 9 9 9 9 9 10 10 10 9 9 9 9 9 8 8 8 8 8 8 8 8 8
9 8 8 8 8 7 7 7 6 6 6 6 6 6 7 7 7 7 7 7 7 8 8 8 9 9 9 9 9 9 8 8 8 8 8 8 8 8 8 8 8 8 8
8 8 7 7 7 7 6 6 6 5 5 5 5 5 5 5 5 6 6 6 6 7 7 7 8 8 8 8 8 8 8 8 8 8 8 8 8 8 8 8 8 8 8
8 7 7 7 6 6 5 5 4 4 4 4 4 4 4 4 4 5 5 6 6 6 6 7 7 7 7 7 7 7 7 8 8 8 8 8 8 7 7 7 7 7 7
7 7 6 6 5 5 4 3 3 3 3 3 3 3 3 4 4 4 4 5 5 5 6 6 6 6 6 7 7 7 7 7 7 7 7 7 7 7 7 7 7 7 7
6 6 5 4 4 3 3 2 2 2 2 2 2 2 3 3 3 4 4 4 4 5 5 5 6 6 6 6 6 6 7 7 7 7 7 7 7 7 7 7 7 7 7
5 4 4 3 2 2 2 1 1 1 1 1 2 2 2 2 3 3 3 3 4 4 5 5 5 5 6 6 6 6 6 6 6 7 7 6 7 7 7 7 7 7 7
4 3 2 2 1 1 1 1 1 1 1 1 1 1 1 2 2 2 3 3 3 4 4 4 5 5 5 5 6 6 6 6 6 6 6 6 6 6 6 6 6 7 7
2 2 1 0 0 0 -0 -0 -0 0 0 0 0 1 1 1 2 2 2 3 3 3 4 4 4 5 5 5 5 6 6 6 6 6 6 6 6 6 6 6 6 6 6
Wind_Speed
11 10 9 9 9 8 8 8 8 7 7 7 7 7 7 7 6 6 7 6 6 6 5 6 7 5 4 4 4 5 5 5 6 6 4 3 4 6 7 7 7 7 7
11 10 11 9 9 9 10 10 8 8 8 8 7 7 8 8 7 8 8 8 8 8 8 7 8 6 6 6 5 6 6 7 7 8 5 4 5 5 5 5 6 6 7
10 10 10 10 10 11 11 10 9 9 9 8 8 9 9 9 9 9 9 9 9 9 9 8 9 7 8 7 7 7 6 6 7 7 6 4 4 4 4 4 5 5 6
10 11 12 12 13 12 11 10 10 10 10 10 10 10 10 9 9 9 9 9 9 9 9 9 10 9 10 9 8 8 7 7 7 7 7 6 6 5 4 5 5 4 4
10 12 13 12 11 10 10 11 10 10 11 10 10 10 10 9 9 10 10 10 10 10 10 10 10 12 13 11 8 9 8 8 7 7 8 6 6 5 5 4 5 5 5
10 12 10 8 9 10 11 10 10 11 10 10 11 11 11 10 13 15 12 10 10 11 11 10 10 12 14 15 16 14 12 10 10 9 9 9 10 8 6 5 5 4 5
8 7 7 7 9 10 9 9 11 11 10 11 12 11 12 14 16 16 17 12 11 11 12 11 10 10 12 11 12 14 14 16 16 12 13 13 11 9 7 7 7 7 7
4 5 5 5 7 6 7 10 10 9 9 10 11 12 13 14 17 18 17 14 12 13 13 13 12 12 11 11 11 11 12 12 13 13 13 14 13 11 9 9 8 7 7
1 2 2 3 5 5 8 10 8 7 9 10 8 11 13 15 17 18 17 10 12 14 14 14 14 14 15 15 12 13 13 13 13 17 17 17 17 16 11 6 6 6 7
5 4 3 2 3 5 6 7 6 6 9 8 10 11 12 14 15 18 17 10 12 13 12 13 16 17 17 16 14 13 15 14 11 10 10 13 13 13 14 12 10 9 8
6 6 6 5 3 3 4 3 4 5 6 8 10 10 11 13 14 16 17 12 13 13 12 12 12 18 20 19 17 15 17 14 10 10 9 9 8 8 9 10 11 11 11
7 8 8 7 6 6 5 5 4 4 6 7 8 9 8 10 12 14 17 19 16 14 13 12 12 17 19 19 16 17 18 14 10 9 9 9 9 9 9 10 11 13 13
8 8 7 7 7 6 5 6 5 4 5 6 7 8 8 7 9 15 17 18 20 16 14 16 16 16 16 14 17 18 14 11 10 10 11 12 11 10 9 7 8 10 12
6 6 6 6 7 7 5 5 5 5 6 6 7 8 9 8 8 8 8 9 13 15 14 15 17 16 14 13 11 11 11 11 11 12 12 12 10 8 9 8 7 7 7
5 5 5 5 5 6 6 5 5 5 6 7 7 8 9 10 11 13 11 10 10 10 9 8 8 9 10 10 10 10 10 10 11 11 11 11 10 10 10 8 8 8 8
4 5 4 5 5 5 6 8 8 9 12 13 12 11 10 14 17 19 18 17 18 14 8 9 11 11 12 12 11 11 10 10 11 11 11 11 10 10 10 8 8 8 10
3 5 4 5 5 6 6 7 9 11 12 14 15 15 14 16 18 18 18 17 15 10 9 11 12 12 12 11 11 11 10 10 9 10 10 10 10 10 9 9 9 9 10
4 5 6 5 6 6 7 7 8 10 11 11 12 15 17 17 18 18 16 11 8 7 9 11 11 11 10 10 10 10 9 8 8 9 10 10 10 10 10 10 9 10 10
5 5 5 5 6 6 7 8 8 10 10 11 11 12 15 16 16 14 10 7 9 9 9 9 9 9 9 9 9 9 9 9 9 9 9 10 10 10 10 11 10 12 11
5 8 8 6 6 7 8 9 9 10 11 11 11 12 12 12 11 11 8 8 9 9 9 9 9 9 8 8 8 8 9 9 9 9 9 9 9 10 11 12 11 10 10
5 6 9 7 6 7 8 9 10 10 11 11 11 13 15 12 11 12 10 8 8 9 8 8 8 8 8 7 7 9 10 9 8 8 8 8 8 9 9 10 10 11 10
4 5 6 7 7 8 9 9 9 10 11 12 12 13 15 11 10 10 10 9 8 7 7 7 7 6 6 6 6 7 8 8 8 8 8 8 8 9 9 9 9 9 10
5 6 6 7 7 9 9 9 10 10 11 11 12 11 11 11 10 10 10 9 8 7 7 6 6 5 4 4 5 5 6 7 6 6 7 7 7 8 8 9 10 10 11
5 6 7 7 8 8 9 10 10 11 11 11 11 11 11 10 11 11 10 10 9 8 7 6 5 5 6 4 3 3 4 4 4 5 7 7 7 7 7 8 9 10 11
5 6 7 7 8 9 9 10 10 11 11 11 11 11 11 11 10 10 10 10 11 9 9 7 6 6 6 6 4 3 3 3 4 4 5 6 8 8 8 9 9 9 10
6 7 7 8 8 9 9 10 10 11 11 11 11 11 11 11 10 10 10 10 10 9 9 8 9 9 8 6 6 6 5 5 5 5 5 5 7 8 9 9 11 10 10
Wind_Direction
201 201 201 202 201 197 202 209 208 209 209 211 212 213 217 221 217 214 225 224 227 236 231 227 237 232 229 224 214 212 213 209 241 263 252 263 273 282 297 304 301 297 298
202 198 203 202 196 201 211 214 208 211 213 215 214 216 222 225 220 218 229 229 228 237 239 233 241 236 232 231 222 223 223 217 229 260 266 260 257 267 277 288 293 294 293
195 197 202 203 203 210 215 215 210 213 217 217 215 220 226 227 225 224 227 232 232 236 238 236 241 235 238 235 228 232 234 232 226 244 262 255 259 263 274 278 279 283 290
193 198 206 211 211 214 215 213 213 213 216 219 220 223 227 228 229 229 229 233 236 238 238 237 239 234 236 236 233 234 235 238 236 242 257 259 259 259 254 265 278 273 285
193 205 215 216 213 214 215 215 215 215 220 220 222 227 229 229 232 229 229 233 236 242 243 240 239 237 236 234 234 234 230 236 240 244 254 258 257 249 247 243 263 279 280
201 216 222 216 217 221 222 219 218 220 221 219 224 228 230 233 230 224 221 231 233 238 244 244 243 246 246 244 240 235 225 231 239 243 251 252 257 252 247 241 248 265 278
209 222 220 215 223 228 228 225 226 226 222 224 228 227 233 235 230 229 224 225 232 236 238 242 246 244 237 243 247 248 243 236 231 237 248 251 255 248 238 242 235 237 251
214 237 238 230 235 235 227 231 233 228 226 232 234 232 234 239 230 229 228 228 235 238 237 236 240 246 240 234 243 250 251 248 240 239 243 249 249 248 237 241 247 249 255
359 307 285 244 240 239 238 241 237 230 234 234 237 236 237 244 233 227 223 228 236 241 239 236 235 243 239 227 235 248 255 256 249 241 240 244 245 242 231 229 232 236 259
16 1 346 296 257 253 254 255 247 238 247 250 249 245 243 248 242 229 220 225 235 243 243 239 233 234 236 223 228 236 248 254 251 251 245 247 248 247 231 225 230 239 253
30 32 23 8 334 309 304 288 275 263 263 260 260 258 251 251 253 241 224 221 231 239 242 243 239 228 230 228 222 230 238 242 247 248 253 255 251 246 240 229 226 230 241
36 34 22 12 8 6 351 332 316 298 286 281 278 278 268 259 253 251 235 226 228 235 241 244 241 228 225 227 225 230 233 235 243 244 247 251 251 248 244 238 232 232 237
39 30 16 11 5 358 355 346 337 328 312 301 293 289 287 277 263 253 250 240 233 236 245 244 241 234 227 231 232 228 227 229 230 236 243 248 248 249 248 246 243 239 242
38 19 8 6 358 354 351 343 334 325 316 311 306 300 298 294 286 278 267 259 247 243 248 249 244 240 235 235 234 230 226 223 223 234 243 249 250 245 243 241 245 241 247
23 6 357 353 345 339 334 319 311 292 288 294 294 293 296 295 288 285 284 280 271 260 253 245 239 235 232 231 232 232 225 221 225 232 238 244 246 246 246 238 236 235 237
2 347 338 332 330 329 328 324 310 299 301 296 280 277 282 275 284 288 282 274 268 262 249 246 240 234 233 232 231 229 224 222 224 226 231 236 239 240 243 237 228 230 237
321 314 313 317 320 322 323 321 320 319 312 305 300 296 289 289 290 289 285 280 273 249 235 241 240 236 233 230 229 228 227 224 220 221 227 230 233 236 238 237 232 230 236
308 310 313 306 308 311 312 312 310 311 315 314 311 304 301 298 296 294 289 285 276 241 238 241 243 241 238 234 231 230 232 228 221 223 226 229 230 231 233 235 233 232 235
313 311 309 307 308 309 311 312 311 309 308 308 311 312 311 309 301 295 285 272 273 268 256 252 250 248 243 239 234 231 229 228 226 224 228 230 229 228 231 234 236 234 235
312 319 325 319 320 322 323 321 318 315 313 312 312 314 318 318 315 313 303 284 277 273 265 257 253 248 244 241 237 233 231 231 231 230 231 231 229 228 232 235 236 236 235
318 323 332 330 325 324 324 322 319 316 314 313 311 311 310 311 308 307 306 301 291 282 275 268 260 251 243 239 235 233 233 235 231 230 231 232 231 232 233 236 237 237 238
328 327 330 327 326 325 323 320 318 316 317 317 316 316 314 310 308 307 307 305 302 297 290 278 268 260 249 242 238 237 237 238 236 233 234 234 234 235 237 237 237 236 238
342 338 336 333 330 324 323 322 320 319 318 317 317 318 322 323 320 318 317 318 315 308 303 293 282 279 277 264 249 240 241 243 243 240 239 240 238 237 235 237 240 240 238
354 347 340 335 332 328 325 323 322 321 321 320 321 321 322 323 325 327 329 328 326 322 321 318 312 309 305 297 282 266 259 262 263 255 249 247 246 244 241 240 243 245 244
357 349 342 337 332 329 326 325 325 325 325 324 324 325 326 325 326 328 328 329 330 332 334 335 335 332 328 328 326 323 327 309 290 281 265 254 252 250 250 248 247 249 246
355 348 342 336 333 330 328 326 326 326 325 325 325 324 324 324 325 328 330 332 333 333 335 335 336 336 335 335 338 340 334 319 303 286 269 259 256 254 252 251 252 248 248
Height
1531 1533 1535 1536 1538 1538 1539 1539 1540 1541 1541 1541 1542 1542 1542 1542 1542 1542 1542 1542 1542 1541 1541 1541 1541 1540 1540 1540 1540 1539 1539 1538 1537 1536 1536 1536 1536 1536 1535 1535 1535 1534 1535
1528 1530 1531 1533 1534 1535 1535 1536 1537 1538 1538 1539 1539 1539 1539 1539 1539 1539 1539 1539 1538 1538 1537 1537 1537 1536 1536 1536 1536 1535 1535 1534 1533 1531 1531 1531 1531 1531 1530 1530 1529 1529 1529
1524 1525 1527 1528 1530 1530 1532 1533 1534 1535 1535 1536 1536 1536 1536 1536 1536 1535 1535 1535 1534 1534 1533 1533 1532 1532 1531 1531 1531 1531 1530 1530 1528 1527 1526 1526 1526 1526 1525 1525 1524 1524 1523
1519 1521 1522 1524 1525 1527 1528 1530 1530 1531 1532 1532 1533 1533 1533 1532 1532 1531 1531 1530 1529 1529 1528 1528 1527 1527 1526 1526 1526 1525 1525 1524 1523 1522 1520 1520 1520 1520 1520 1519 1519 1518 1518
1514 1516 1518 1520 1521 1523 1524 1525 1526 1527 1528 1528 1528 1528 1528 1528 1528 1527 1526 1525 1524 1524 1523 1522 1522 1521 1521 1520 1520 1519 1519 1518 1517 1516 1515 1514 1514 1514 1514 1514 1513 1512 1511
1510 1512 1514 1516 1517 1518 1520 1521 1522 1522 1523 1523 1523 1523 1523 1523 1523 1522 1521 1520 1519 1518 1517 1516 1516 1515 1514 1514 1513 1513 1512 1511 1510 1510 1509 1508 1508 1509 1509 1508 1507 1506 1505
1506 1508 1509 1511 1512 1513 1515 1516 1516 1517 1518 1518 1518 1518 1517 1517 1517 1516 1515 1514 1513 1512 1511 1510 1509 1508 1508 1507 1507 1506 1505 1504 1504 1504 1502 1501 1502 1503 1503 1502 1501 1500 1499
1502 1503 1505 1506 1507 1508 1509 1510 1510 1511 1511 1511 1511 1511 1510 1510 1510 1509 1508 1507 1506 1505 1504 1503 1502 1501 1501 1501 1500 1499 1498 1497 1497 1496 1495 1495 1496 1496 1496 1496 1495 1493 1492
1498 1499 1500 1501 1501 1502 1503 1503 1503 1503 1503 1502 1502 1502 1501 1501 1502 1501 1501 1499 1497 1496 1496 1495 1495 1494 1494 1494 1492 1491 1490 1490 1491 1490 1489 1489 1489 1489 1489 1489 1488 1487 1485
1494 1495 1495 1496 1496 1496 1496 1495 1495 1494 1494 1493 1493 1493 1492 1491 1492 1492 1492 1490 1488 1488 1487 1487 1486 1486 1486 1486 1484 1483 1482 1482 1483 1483 1482 1482 1482 1482 1482 1481 1481 1480 1478
1492 1492 1492 1492 1491 1490 1489 1488 1487 1486 1485 1484 1483 1483 1482 1482 1482 1482 1482 1480 1478 1478 1477 1477 1477 1477 1477 1477 1476 1475 1474 1476 1476 1475 1474 1474 1474 1474 1474 1474 1473 1472 1471
1492 1491 1490 1489 1487 1485 1483 1482 1480 1478 1477 1476 1474 1473 1472 1472 1472 1471 1471 1470 1469 1467 1466 1466 1467 1468 1467 1468 1467 1466 1467 1468 1467 1466 1465 1465 1465 1465 1465 1466 1465 1464 1463
1491 1489 1488 1486 1484 1482 1480 1478 1476 1474 1471 1469 1468 1465 1464 1463 1462 1461 1460 1459 1458 1457 1455 1456 1457 1457 1457 1457 1457 1458 1458 1458 1457 1457 1456 1456 1456 1457 1457 1456 1456 1455 1454
1490 1488 1486 1484 1481 1479 1477 1475 1472 1469 1467 1465 1462 1459 1456 1455 1454 1452 1450 1449 1448 1446 1445 1445 1445 1445 1446 1446 1447 1447 1447 1448 1448 1447 1447 1447 1448 1447 1447 1447 1447 1446 1445
1488 1486 1484 1481 1479 1476 1474 1472 1469 1467 1464 1461 1457 1454 1451 1447 1446 1444 1441 1439 1437 1436 1435 1433 1433 1433 1434 1434 1435 1436 1437 1437 1437 1437 1438 1438 1438 1438 1438 1438 1438 1438 1437
1486 1484 1481 1479 1476 1473 1470 1467 1464 1462 1459 1456 1452 1449 1444 1441 1437 1434 1432 1429 1428 1426 1424 1422 1422 1422 1422 1423 1424 1425 1426 1426 1427 1428 1428 1428 1428 1428 1429 1429 1429 1429 1428
1484 1481 1478 1475 1472 1469 1465 1461 1457 1454 1452 1449 1445 1441 1437 1433 1429 1425 1422 1419 1417 1415 1413 1412 1411 1412 1412 1412 1413 1414 1415 1416 1417 1418 1418 1419 1419 1419 1419 1420 1420 1420 1420
1481 1478 1475 1472 1468 1465 1461 1457 1452 1447 1442 1438 1436 1433 1428 1424 1420 1416 1412 1409 1406 1405 1403 1402 1401 1401 1401 1402 1403 1404 1405 1406 1407 1408 1409 1410 1410 1410 1410 1411 1412 1412 1412
1477 1474 1471 1468 1464 1460 1456 1452 1447 1442 1437 1432 1428 1424 1421 1416 1411 1408 1404 1400 1397 1395 1394 1392 1392 1392 1392 1393 1394 1395 1396 1397 1398 1399 1400 1401 1401 1402 1402 1403 1403 1404 1404
1474 1471 1467 1463 1459 1455 1451 1446 1441 1436 1431 1427 1422 1418 1414 1409 1404 1400 1397 1393 1390 1387 1386 1384 1384 1384 1384 1384 1385 1386 1387 1388 1389 1390 1391 1392 1393 1393 1394 1394 1395 1396 1396
1469 1466 1462 1458 1454 1450 1445 1440 1436 1431 1426 1422 1418 1414 1409 1404 1399 1395 1391 1387 1384 1381 1379 1378 1377 1376 1377 1377 1377 1378 1379 1380 1382 1383 1383 1384 1385 1385 1386 1386 1387 1387 1388
1465 1461 1457 1453 1448 1444 1440 1436 1431 1427 1422 1417 1412 1408 1404 1400 1395 1390 1386 1382 1378 1376 1373 1371 1371 1370 1370 1370 1371 1372 1372 1373 1374 1375 1376 1376 1377 1377 1377 1378 1378 1379 1379
1460 1456 1452 1448 1443 1439 1435 1431 1427 1422 1418 1413 1409 1404 1400 1395 1390 1386 1382 1377 1374 1371 1368 1366 1365 1365 1365 1365 1365 1366 1366 1367 1368 1368 1369 1369 1369 1369 1370 1370 1370 1371 1371
1455 1451 1447 1443 1439 1435 1431 1427 1423 1419 1414 1410 1405 1401 1396 1392 1387 1383 1378 1374 1371 1367 1365 1363 1362 1361 1361 1361 1361 1361 1361 1362 1362 1362 1362 1362 1362 1362 1362 1362 1363 1363 1363
1451 1447 1443 1439 1435 1431 1427 1423 1419 1415 1411 1406 1402 1397 1393 1389 1385 1380 1376 1372 1368 1365 1362 1361 1359 1359 1358 1358 1357 1357 1357 1357 1356 1356 1355 1355 1355 1355 1355 1355 1355 1355 1356
1447 1444 1440 1436 1432 1428 1424 1420 1416 1412 1407 1403 1399 1394 1390 1386 1382 1378 1373 1369 1366 1363 1361 1359 1357 1356 1355 1354 1354 1353 1352 1352 1351 1350 1349 1348 1347 1347 1347 1347 1347 1348 1348